Home > Weather > Lohne (Oldenburg) > Past weeks

Flag for Germany Weather for the Past 2 Weeks in Lohne (Oldenburg), Lower Saxony, Germany

Now
50 °F

Broken clouds.


Feels Like: 48 °F
Forecast: 40 / 55 °F
Wind: 5 mph from Southeast

Location: Bremen Airport

Current Time: Apr 30, 2016 at 5:23:11 PM

Latest Report: Apr 30, 2016 at 4:50 PM


Visibility: N/A

Pressure: 30.12 "Hg

Humidity: 76%

Dew Point: 43 °F

Location of Lohne (Oldenburg)Location

Historic Weather in Lohne (Oldenburg) — Graph

°F

Lohne (Oldenburg) Temperature Yesterday

Maximum temperature yesterday: 54 °F (at 12:50 PM)
Minimum temperature yesterday: 34 °F (at 12:50 AM)
Average temperature yesterday: 43 °F

High & Low Weather Summary for the Past Weeks

 TemperatureHumidityPressure
High59 °F (Apr 16, 3:50 PM)100% (Apr 16, 12:50 AM)30.45 "Hg (Apr 16, 12:50 AM)
Low28 °F (Apr 25, 2:20 AM)41% (Apr 21, 2:20 PM)29.36 "Hg (Apr 26, 12:20 PM)
Average43 °F78%29.90 "Hg
* Reported Apr 15 4:20 PM — Apr 30 4:20 PM, Lohne (Oldenburg), Weather by CustomWeather, © 2016

Note: Actual official high and low records may vary slightly from our data, if they occured in-between our weather recording intervals... More about our weather records

Advertising

Lohne (Oldenburg) Weather History for the Previous 24 Hours

Scroll right to see more
 ConditionsComfort  
Time TempWeatherWind HumidityBarometerVisibility
4:20 PM
Sat, Apr 30
50 °FBroken clouds.6 mph76%30.12 "HgN/A
3:50 PM48 °FBroken clouds.5 mph76%30.12 "HgN/A
3:20 PM46 °FSprinkles. Broken clouds.2 mph82%30.12 "HgN/A
2:50 PM46 °FSprinkles. Broken clouds.7 mph87%30.09 "Hg6 mi
2:20 PM48 °FMore clouds than sun.8 mph82%30.09 "HgN/A
1:50 PM48 °FLight rain. More clouds than sun.3 mph82%30.09 "HgN/A
1:20 PM50 °FLight rain. More clouds than sun.3 mph67%30.09 "HgN/A
12:50 PM48 °FLight rain. More clouds than sun.6 mph82%30.09 "HgN/A
12:20 PM48 °FLight rain. Cloudy.6 mph76%30.07 "HgN/A
11:20 AM46 °FLight rain. More clouds than sun.5 mph82%30.07 "HgN/A
10:20 AM45 °FLight rain. Broken clouds.7 mph87%30.07 "Hg5 mi
9:50 AM45 °FLight rain. Partly sunny.7 mph87%30.07 "Hg5 mi
9:20 AM43 °FLight rain. Broken clouds.5 mph93%30.07 "Hg5 mi
8:50 AM43 °FLight rain. Partly sunny.6 mph93%30.07 "Hg5 mi
8:20 AM43 °FLight rain. Partly sunny.5 mph93%30.04 "Hg5 mi
7:50 AM43 °FLight rain. Broken clouds.5 mph93%30.04 "Hg5 mi
7:20 AM43 °FLight rain. Partly sunny.5 mph93%30.04 "HgN/A
6:50 AM45 °FLight rain. Passing clouds.5 mph87%30.01 "HgN/A
6:20 AM43 °FPassing clouds.3 mph93%30.01 "HgN/A
5:50 AM43 °FPassing clouds.3 mph87%30.01 "HgN/A
5:20 AM43 °FPartly cloudy.2 mph93%30.01 "HgN/A
4:50 AM43 °FPassing clouds.No wind93%30.01 "HgN/A
4:20 AM43 °FClear.3 mph87%29.98 "Hg10 mi
3:50 AM43 °FClear.5 mph87%29.98 "Hg10 mi
3:20 AM43 °FClear.7 mph87%29.98 "Hg10 mi
2:50 AM45 °FClear.8 mph81%29.98 "Hg10 mi
1:50 AM45 °FClear.9 mph87%29.98 "Hg10 mi
1:20 AM45 °FPassing clouds.9 mph87%29.98 "HgN/A
12:50 AM45 °FPassing clouds.8 mph87%29.98 "HgN/A
12:20 AM45 °FPassing clouds.8 mph87%29.98 "HgN/A
11:50 PM
Fri, Apr 29
45 °FPassing clouds.8 mph87%29.98 "HgN/A
11:20 PM45 °FPassing clouds.8 mph87%29.98 "HgN/A
10:20 PM45 °FLight rain. Passing clouds.8 mph87%29.98 "HgN/A
9:50 PM45 °FLight rain. Partly cloudy.7 mph87%30.01 "HgN/A
9:20 PM45 °FLight rain. Partly sunny.6 mph87%30.01 "HgN/A
8:50 PM45 °FLight rain. Broken clouds.8 mph87%29.98 "HgN/A
8:20 PM45 °FLight rain. Partly sunny.7 mph87%29.98 "HgN/A
7:50 PM46 °FLight rain. Broken clouds.6 mph82%29.98 "HgN/A
7:20 PM46 °FLight rain. Partly sunny.8 mph82%29.98 "HgN/A
6:50 PM46 °FLight rain. Partly sunny.8 mph82%29.98 "HgN/A
6:20 PM46 °FLight rain. Partly sunny.10 mph82%29.98 "HgN/A
5:50 PM46 °FLight rain. Overcast.12 mph82%29.98 "HgN/A
5:20 PM46 °FLight rain. Overcast.12 mph82%29.98 "HgN/A
Weather by CustomWeather, © 2016

See weather overviewHow to use our weather pages